QPF
0.02 0.03 0.04 0.05 0.06 0.05 0.04 0.03 0.04 0.03 0.04 0.04 0.03 0.03 0.02 0.02 0.01 0.02 0.02 0.04 0.09 0.10 0.08 0.10 0.09 0.07 0.04 0.02 0.03 0.04 0.03 0.02 0.02 0.02 0.01 0.01 0.01 0.01 0.01 0.01 0.01 0.01 0.01
0.02 0.03 0.03 0.05 0.06 0.05 0.04 0.03 0.04 0.04 0.03 0.03 0.03 0.03 0.02 0.02 0.02 0.02 0.02 0.02 0.06 0.10 0.11 0.11 0.10 0.07 0.04 0.02 0.02 0.03 0.04 0.03 0.03 0.03 0.02 0.01 0.01 0.01 0.00 0.00 0.00 0.00 0.00
0.01 0.02 0.02 0.03 0.05 0.05 0.03 0.03 0.04 0.04 0.03 0.04 0.04 0.04 0.03 0.02 0.02 0.02 0.01 0.01 0.02 0.06 0.11 0.13 0.11 0.08 0.05 0.02 0.02 0.02 0.02 0.03 0.03 0.03 0.02 0.01 0.01 0.01 0.00 0.00 0.00 0.00 0.00
0.01 0.02 0.02 0.02 0.03 0.03 0.03 0.03 0.03 0.04 0.04 0.04 0.05 0.06 0.05 0.03 0.03 0.03 0.02 0.01 0.02 0.04 0.07 0.12 0.12 0.09 0.06 0.03 0.02 0.02 0.02 0.02 0.03 0.04 0.03 0.02 0.01 0.01 0.00 0.00 0.00 0.00 0.00
0.01 0.01 0.01 0.02 0.02 0.03 0.03 0.02 0.02 0.03 0.04 0.04 0.06 0.06 0.06 0.05 0.05 0.05 0.04 0.03 0.02 0.02 0.04 0.06 0.10 0.09 0.06 0.04 0.02 0.02 0.02 0.02 0.02 0.03 0.03 0.02 0.02 0.02 0.01 0.00 0.00 0.00 0.00
0.01 0.01 0.02 0.03 0.02 0.03 0.03 0.02 0.02 0.03 0.03 0.03 0.03 0.05 0.06 0.07 0.07 0.06 0.04 0.03 0.02 0.02 0.01 0.02 0.04 0.07 0.07 0.04 0.03 0.02 0.02 0.02 0.02 0.02 0.02 0.02 0.03 0.02 0.02 0.01 0.01 0.00 0.00
0.01 0.01 0.01 0.02 0.02 0.02 0.02 0.02 0.02 0.02 0.01 0.01 0.01 0.02 0.03 0.04 0.06 0.07 0.05 0.03 0.02 0.01 0.01 0.01 0.02 0.03 0.04 0.04 0.04 0.03 0.02 0.02 0.02 0.01 0.01 0.01 0.02 0.02 0.02 0.02 0.02 0.01 0.01
0.01 0.01 0.01 0.02 0.02 0.02 0.02 0.01 0.01 0.02 0.02 0.02 0.02 0.02 0.02 0.03 0.04 0.06 0.06 0.04 0.02 0.01 0.01 0.01 0.01 0.02 0.03 0.03 0.03 0.03 0.02 0.01 0.01 0.01 0.00 0.00 0.00 0.01 0.02 0.02 0.02 0.02 0.02
0.00 0.01 0.02 0.03 0.02 0.02 0.02 0.02 0.02 0.02 0.02 0.02 0.02 0.02 0.02 0.02 0.03 0.04 0.05 0.04 0.02 0.01 0.01 0.01 0.01 0.01 0.02 0.02 0.02 0.02 0.01 0.01 0.00 0.01 0.01 0.00 0.00 0.00 0.01 0.01 0.02 0.02 0.02
0.01 0.01 0.02 0.02 0.02 0.02 0.02 0.02 0.02 0.02 0.01 0.01 0.01 0.01 0.02 0.02 0.02 0.03 0.04 0.05 0.05 0.03 0.02 0.01 0.01 0.01 0.01 0.01 0.02 0.02 0.01 0.01 0.01 0.00 0.00 0.00 0.00 0.00 0.00 0.00 0.01 0.01 0.02
0.01 0.01 0.02 0.02 0.02 0.02 0.02 0.02 0.02 0.02 0.02 0.02 0.02 0.02 0.03 0.03 0.02 0.01 0.02 0.04 0.05 0.05 0.03 0.01 0.01 0.00 0.01 0.01 0.01 0.01 0.01 0.02 0.01 0.01 0.01 0.00 0.00 0.00 0.00 0.00 0.00 0.01 0.01
0.01 0.02 0.03 0.02 0.02 0.02 0.02 0.02 0.02 0.02 0.02 0.02 0.02 0.02 0.02 0.03 0.02 0.01 0.02 0.03 0.03 0.03 0.03 0.02 0.01 0.01 0.01 0.01 0.01 0.01 0.01 0.01 0.01 0.01 0.01 0.01 0.01 0.01 0.01 0.00 0.00 0.00 0.01
0.01 0.02 0.03 0.03 0.02 0.01 0.02 0.02 0.03 0.03 0.03 0.03 0.03 0.03 0.03 0.03 0.03 0.03 0.03 0.02 0.02 0.02 0.03 0.03 0.01 0.01 0.01 0.01 0.01 0.01 0.02 0.02 0.02 0.01 0.01 0.01 0.01 0.01 0.01 0.01 0.00 0.00 0.01
0.01 0.01 0.02 0.02 0.02 0.01 0.01 0.02 0.02 0.02 0.03 0.03 0.03 0.02 0.03 0.05 0.05 0.04 0.03 0.02 0.01 0.01 0.01 0.02 0.02 0.01 0.01 0.00 0.00 0.00 0.01 0.01 0.02 0.02 0.02 0.01 0.01 0.01 0.01 0.01 0.01 0.01 0.01
0.00 0.01 0.01 0.02 0.02 0.02 0.01 0.02 0.02 0.02 0.02 0.03 0.02 0.02 0.02 0.02 0.04 0.05 0.04 0.02 0.01 0.01 0.01 0.01 0.01 0.01 0.00 0.00 0.00 0.00 0.01 0.01 0.01 0.01 0.02 0.02 0.02 0.02 0.02 0.02 0.02 0.01 0.01
0.01 0.01 0.01 0.02 0.02 0.01 0.01 0.01 0.02 0.03 0.03 0.03 0.03 0.03 0.03 0.03 0.03 0.05 0.04 0.02 0.02 0.01 0.01 0.01 0.01 0.01 0.01 0.01 0.01 0.00 0.00 0.01 0.01 0.01 0.01 0.01 0.02 0.02 0.02 0.02 0.02 0.02 0.01
0.01 0.01 0.01 0.01 0.01 0.02 0.02 0.03 0.04 0.05 0.05 0.05 0.05 0.04 0.03 0.03 0.04 0.05 0.05 0.03 0.02 0.02 0.01 0.01 0.01 0.01 0.01 0.01 0.01 0.01 0.01 0.00 0.01 0.01 0.01 0.01 0.01 0.01 0.02 0.02 0.02 0.02 0.01
0.00 0.00 0.01 0.01 0.01 0.01 0.02 0.03 0.04 0.04 0.05 0.05 0.05 0.04 0.03 0.03 0.03 0.04 0.04 0.03 0.03 0.02 0.01 0.01 0.01 0.00 0.00 0.01 0.02 0.02 0.02 0.01 0.00 0.01 0.02 0.02 0.01 0.01 0.01 0.02 0.02 0.02 0.02
0.00 0.00 0.01 0.01 0.01 0.01 0.03 0.05 0.07 0.08 0.08 0.05 0.04 0.03 0.02 0.02 0.02 0.03 0.03 0.03 0.03 0.02 0.02 0.01 0.01 0.01 0.00 0.01 0.03 0.03 0.02 0.02 0.01 0.01 0.01 0.02 0.02 0.02 0.02 0.02 0.02 0.02 0.02
0.01 0.01 0.01 0.01 0.02 0.02 0.03 0.04 0.05 0.08 0.11 0.10 0.06 0.04 0.03 0.01 0.01 0.01 0.02 0.02 0.02 0.02 0.02 0.03 0.02 0.02 0.01 0.02 0.03 0.04 0.03 0.03 0.02 0.01 0.01 0.01 0.01 0.02 0.03 0.03 0.03 0.02 0.01
0.01 0.01 0.01 0.01 0.02 0.02 0.03 0.04 0.03 0.03 0.05 0.09 0.11 0.08 0.05 0.03 0.02 0.02 0.03 0.03 0.02 0.02 0.02 0.02 0.02 0.03 0.02 0.02 0.02 0.02 0.03 0.04 0.03 0.02 0.00 0.01 0.01 0.02 0.03 0.04 0.04 0.04 0.03
0.01 0.01 0.01 0.01 0.02 0.02 0.03 0.03 0.02 0.02 0.02 0.03 0.05 0.07 0.06 0.05 0.03 0.03 0.03 0.02 0.02 0.02 0.01 0.01 0.01 0.02 0.02 0.02 0.01 0.01 0.02 0.03 0.03 0.02 0.01 0.01 0.02 0.02 0.03 0.04 0.05 0.05 0.05
0.00 0.00 0.00 0.01 0.02 0.02 0.03 0.04 0.03 0.02 0.01 0.02 0.02 0.03 0.05 0.05 0.05 0.04 0.03 0.02 0.02 0.01 0.01 0.01 0.01 0.01 0.01 0.02 0.02 0.01 0.02 0.03 0.03 0.02 0.02 0.02 0.02 0.02 0.02 0.03 0.04 0.05 0.05
0.00 0.00 0.00 0.01 0.02 0.02 0.02 0.03 0.03 0.02 0.01 0.02 0.02 0.01 0.02 0.03 0.04 0.04 0.04 0.03 0.03 0.02 0.02 0.02 0.02 0.01 0.01 0.01 0.01 0.02 0.02 0.02 0.02 0.02 0.02 0.03 0.03 0.02 0.01 0.01 0.02 0.02 0.04
0.00 0.00 0.00 0.00 0.01 0.02 0.01 0.02 0.02 0.01 0.01 0.01 0.01 0.01 0.01 0.01 0.01 0.02 0.03 0.03 0.02 0.02 0.02 0.02 0.02 0.02 0.02 0.02 0.02 0.02 0.03 0.03 0.02 0.02 0.02 0.02 0.02 0.02 0.02 0.01 0.01 0.02 0.02
0.01 0.01 0.01 0.01 0.01 0.01 0.01 0.02 0.02 0.01 0.01 0.01 0.01 0.01 0.01 0.01 0.01 0.01 0.02 0.03 0.04 0.03 0.03 0.02 0.02 0.02 0.02 0.03 0.03 0.03 0.03 0.04 0.04 0.02 0.02 0.02 0.02 0.02 0.02 0.02 0.02 0.02 0.03
MSLP
1010.66 1010.58 1010.60 1010.73 1010.96 1011.26 1011.65 1012.10 1012.61 1013.16 1013.75 1014.35 1014.94 1015.50 1016.03 1016.51 1016.95 1017.33 1017.70 1018.05 1018.41 1018.79 1019.20 1019.66 1020.15 1020.68 1021.23 1021.79 1022.35 1022.89 1023.41 1023.89 1024.33 1024.71 1025.01 1025.24 1025.37 1025.41 1025.37 1025.25 1025.07 1024.86 1024.63
1010.40 1010.25 1010.22 1010.30 1010.47 1010.74 1011.11 1011.57 1012.10 1012.71 1013.36 1014.02 1014.67 1015.28 1015.83 1016.32 1016.74 1017.13 1017.49 1017.85 1018.24 1018.66 1019.12 1019.63 1020.16 1020.71 1021.26 1021.80 1022.34 1022.85 1023.35 1023.84 1024.31 1024.75 1025.14 1025.47 1025.72 1025.87 1025.92 1025.87 1025.74 1025.56 1025.33
1009.97 1009.78 1009.71 1009.74 1009.88 1010.13 1010.50 1010.97 1011.55 1012.21 1012.91 1013.63 1014.33 1014.97 1015.54 1016.03 1016.46 1016.84 1017.21 1017.59 1018.01 1018.48 1019.00 1019.55 1020.13 1020.69 1021.24 1021.76 1022.25 1022.73 1023.20 1023.68 1024.16 1024.65 1025.12 1025.55 1025.91 1026.18 1026.34 1026.38 1026.31 1026.16 1025.95
1009.47 1009.24 1009.13 1009.13 1009.25 1009.50 1009.87 1010.37 1010.99 1011.70 1012.46 1013.23 1013.96 1014.63 1015.22 1015.71 1016.13 1016.51 1016.89 1017.29 1017.75 1018.27 1018.84 1019.45 1020.06 1020.65 1021.19 1021.69 1022.15 1022.58 1023.01 1023.46 1023.95 1024.46 1024.99 1025.50 1025.95 1026.32 1026.58 1026.71 1026.71 1026.61 1026.44
1008.97 1008.72 1008.58 1008.57 1008.67 1008.92 1009.30 1009.81 1010.46 1011.21 1012.01 1012.82 1013.59 1014.28 1014.88 1015.38 1015.80 1016.18 1016.57 1017.00 1017.49 1018.05 1018.68 1019.33 1019.98 1020.58 1021.13 1021.61 1022.03 1022.42 1022.81 1023.23 1023.70 1024.22 1024.77 1025.32 1025.84 1026.29 1026.63 1026.83 1026.91 1026.87 1026.74
1008.58 1008.30 1008.15 1008.11 1008.20 1008.43 1008.80 1009.32 1009.99 1010.76 1011.59 1012.43 1013.23 1013.94 1014.55 1015.06 1015.48 1015.88 1016.27 1016.72 1017.24 1017.84 1018.50 1019.19 1019.87 1020.50 1021.05 1021.52 1021.93 1022.29 1022.64 1023.02 1023.46 1023.96 1024.50 1025.07 1025.62 1026.11 1026.50 1026.77 1026.91 1026.94 1026.86
1008.35 1008.06 1007.88 1007.81 1007.86 1008.05 1008.40 1008.90 1009.55 1010.33 1011.17 1012.03 1012.85 1013.59 1014.23 1014.75 1015.20 1015.60 1016.01 1016.48 1017.01 1017.63 1018.31 1019.02 1019.72 1020.37 1020.94 1021.42 1021.81 1022.16 1022.49 1022.84 1023.24 1023.70 1024.22 1024.77 1025.31 1025.81 1026.23 1026.55 1026.75 1026.85 1026.85
1008.29 1007.99 1007.78 1007.67 1007.66 1007.79 1008.07 1008.52 1009.13 1009.89 1010.72 1011.59 1012.44 1013.21 1013.88 1014.44 1014.92 1015.34 1015.77 1016.24 1016.78 1017.40 1018.09 1018.81 1019.52 1020.18 1020.77 1021.26 1021.68 1022.03 1022.35 1022.68 1023.06 1023.48 1023.96 1024.46 1024.98 1025.47 1025.89 1026.24 1026.50 1026.66 1026.75
1008.41 1008.10 1007.85 1007.67 1007.58 1007.61 1007.80 1008.16 1008.71 1009.41 1010.23 1011.10 1011.96 1012.77 1013.48 1014.09 1014.61 1015.07 1015.52 1016.00 1016.54 1017.14 1017.82 1018.53 1019.24 1019.91 1020.52 1021.04 1021.49 1021.87 1022.21 1022.54 1022.90 1023.29 1023.72 1024.19 1024.66 1025.12 1025.55 1025.91 1026.21 1026.45 1026.62
1008.67 1008.35 1008.05 1007.79 1007.59 1007.51 1007.57 1007.82 1008.27 1008.90 1009.67 1010.53 1011.40 1012.25 1013.01 1013.68 1014.25 1014.76 1015.24 1015.72 1016.25 1016.84 1017.49 1018.18 1018.89 1019.57 1020.20 1020.76 1021.24 1021.67 1022.04 1022.40 1022.76 1023.14 1023.54 1023.96 1024.39 1024.82 1025.23 1025.61 1025.95 1026.25 1026.51
1009.02 1008.68 1008.32 1007.97 1007.66 1007.44 1007.37 1007.49 1007.83 1008.37 1009.07 1009.90 1010.78 1011.65 1012.47 1013.19 1013.83 1014.38 1014.89 1015.40 1015.92 1016.49 1017.12 1017.78 1018.47 1019.16 1019.80 1020.41 1020.95 1021.43 1021.86 1022.25 1022.63 1023.01 1023.39 1023.78 1024.17 1024.57 1024.96 1025.35 1025.72 1026.08 1026.41
1009.37 1009.01 1008.60 1008.16 1007.75 1007.41 1007.21 1007.20 1007.41 1007.85 1008.48 1009.27 1010.13 1011.02 1011.87 1012.65 1013.34 1013.95 1014.50 1015.03 1015.56 1016.12 1016.72 1017.36 1018.04 1018.72 1019.39 1020.02 1020.62 1021.15 1021.64 1022.08 1022.49 1022.88 1023.25 1023.62 1023.99 1024.36 1024.74 1025.12 1025.51 1025.90 1026.30
1009.64 1009.26 1008.80 1008.30 1007.80 1007.36 1007.05 1006.93 1007.04 1007.39 1007.94 1008.67 1009.50 1010.39 1011.26 1012.08 1012.82 1013.48 1014.07 1014.63 1015.17 1015.73 1016.32 1016.95 1017.61 1018.29 1018.98 1019.64 1020.28 1020.86 1021.40 1021.89 1022.33 1022.73 1023.11 1023.46 1023.81 1024.16 1024.51 1024.89 1025.28 1025.69 1026.12
1009.70 1009.30 1008.81 1008.27 1007.73 1007.24 1006.88 1006.69 1006.73 1007.00 1007.48 1008.14 1008.93 1009.79 1010.66 1011.50 1012.28 1012.98 1013.62 1014.21 1014.78 1015.35 1015.94 1016.57 1017.22 1017.90 1018.59 1019.28 1019.93 1020.56 1021.13 1021.65 1022.12 1022.54 1022.92 1023.27 1023.60 1023.92 1024.26 1024.61 1025.00 1025.41 1025.84
1009.43 1009.00 1008.51 1007.98 1007.45 1006.97 1006.61 1006.41 1006.42 1006.65 1007.08 1007.69 1008.43 1009.25 1010.10 1010.94 1011.73 1012.47 1013.15 1013.78 1014.38 1014.98 1015.59 1016.22 1016.87 1017.55 1018.24 1018.92 1019.60 1020.23 1020.83 1021.37 1021.85 1022.28 1022.66 1023.01 1023.33 1023.63 1023.95 1024.28 1024.64 1025.04 1025.46
1008.69 1008.25 1007.78 1007.29 1006.84 1006.44 1006.15 1006.02 1006.06 1006.29 1006.70 1007.27 1007.97 1008.75 1009.57 1010.39 1011.19 1011.95 1012.66 1013.33 1013.98 1014.61 1015.24 1015.88 1016.54 1017.21 1017.89 1018.57 1019.23 1019.87 1020.47 1021.01 1021.51 1021.94 1022.33 1022.68 1022.99 1023.29 1023.59 1023.90 1024.24 1024.60 1024.99
1007.42 1006.97 1006.54 1006.15 1005.82 1005.57 1005.43 1005.41 1005.55 1005.84 1006.28 1006.84 1007.51 1008.25 1009.03 1009.83 1010.63 1011.39 1012.13 1012.85 1013.53 1014.20 1014.86 1015.52 1016.18 1016.85 1017.52 1018.18 1018.82 1019.45 1020.04 1020.58 1021.08 1021.53 1021.92 1022.28 1022.60 1022.90 1023.20 1023.50 1023.82 1024.15 1024.51
1005.63 1005.16 1004.79 1004.53 1004.37 1004.32 1004.38 1004.55 1004.83 1005.23 1005.72 1006.31 1006.97 1007.69 1008.45 1009.23 1010.02 1010.80 1011.56 1012.31 1013.03 1013.73 1014.42 1015.10 1015.76 1016.42 1017.07 1017.71 1018.33 1018.94 1019.52 1020.06 1020.57 1021.03 1021.45 1021.84 1022.19 1022.51 1022.82 1023.12 1023.43 1023.75 1024.07
1003.45 1002.97 1002.68 1002.55 1002.59 1002.76 1003.04 1003.42 1003.89 1004.42 1005.01 1005.65 1006.34 1007.06 1007.80 1008.57 1009.36 1010.14 1010.93 1011.70 1012.46 1013.19 1013.90 1014.59 1015.25 1015.90 1016.53 1017.15 1017.75 1018.34 1018.92 1019.47 1020.00 1020.49 1020.95 1021.38 1021.77 1022.13 1022.47 1022.79 1023.11 1023.42 1023.73
1001.15 1000.65 1000.42 1000.43 1000.65 1001.03 1001.53 1002.13 1002.77 1003.45 1004.15 1004.86 1005.59 1006.32 1007.08 1007.85 1008.64 1009.44 1010.25 1011.05 1011.83 1012.58 1013.31 1014.00 1014.66 1015.30 1015.91 1016.51 1017.10 1017.68 1018.26 1018.83 1019.38 1019.92 1020.43 1020.91 1021.36 1021.78 1022.16 1022.52 1022.86 1023.18 1023.49
999.02 998.51 998.33 998.44 998.80 999.36 1000.04 1000.80 1001.60 1002.40 1003.20 1003.97 1004.74 1005.51 1006.29 1007.08 1007.89 1008.71 1009.54 1010.36 1011.17 1011.94 1012.67 1013.36 1014.02 1014.64 1015.23 1015.81 1016.40 1016.98 1017.57 1018.17 1018.76 1019.35 1019.92 1020.46 1020.97 1021.45 1021.88 1022.28 1022.65 1022.99 1023.31
997.41 996.87 996.71 996.89 997.33 997.98 998.76 999.62 1000.50 1001.38 1002.23 1003.06 1003.86 1004.66 1005.47 1006.29 1007.13 1007.98 1008.84 1009.69 1010.52 1011.30 1012.04 1012.72 1013.36 1013.96 1014.54 1015.12 1015.70 1016.29 1016.90 1017.52 1018.16 1018.79 1019.41 1020.01 1020.58 1021.10 1021.58 1022.02 1022.42 1022.79 1023.13
996.56 996.00 995.83 995.99 996.44 997.09 997.88 998.74 999.63 1000.50 1001.36 1002.19 1003.00 1003.82 1004.65 1005.51 1006.39 1007.28 1008.17 1009.05 1009.90 1010.69 1011.43 1012.11 1012.74 1013.33 1013.89 1014.46 1015.04 1015.64 1016.27 1016.92 1017.59 1018.26 1018.92 1019.55 1020.15 1020.71 1021.22 1021.69 1022.11 1022.51 1022.87
996.63 996.03 995.80 995.90 996.26 996.82 997.51 998.27 999.06 999.85 1000.64 1001.42 1002.22 1003.03 1003.88 1004.76 1005.68 1006.61 1007.54 1008.45 1009.32 1010.13 1010.87 1011.55 1012.16 1012.75 1013.31 1013.87 1014.45 1015.06 1015.70 1016.36 1017.05 1017.73 1018.41 1019.06 1019.67 1020.23 1020.75 1021.23 1021.67 1022.08 1022.47
997.57 996.93 996.61 996.58 996.79 997.17 997.66 998.23 998.84 999.47 1000.12 1000.80 1001.53 1002.31 1003.15 1004.05 1005.00 1005.97 1006.94 1007.88 1008.77 1009.60 1010.35 1011.02 1011.64 1012.21 1012.77 1013.33 1013.91 1014.53 1015.17 1015.84 1016.52 1017.21 1017.87 1018.51 1019.10 1019.65 1020.16 1020.63 1021.07 1021.48 1021.89
999.24 998.54 998.11 997.92 997.91 998.04 998.28 998.58 998.94 999.35 999.81 1000.35 1000.97 1001.68 1002.49 1003.38 1004.34 1005.33 1006.33 1007.30 1008.21 1009.05 1009.81 1010.49 1011.11 1011.69 1012.25 1012.81 1013.39 1014.01 1014.65 1015.31 1015.98 1016.65 1017.28 1017.89 1018.44 1018.96 1019.43 1019.87 1020.30 1020.71 1021.13
Thickness
5697 5698 5698 5698 5697 5696 5694 5693 5691 5690 5689 5687 5684 5682 5681 5681 5682 5682 5681 5681 5681 5680 5679 5678 5677 5677 5676 5675 5675 5675 5674 5673 5673 5672 5670 5670 5671 5671 5670 5670 5670 5670 5670
5692 5692 5692 5692 5691 5690 5689 5687 5686 5685 5685 5683 5682 5680 5679 5677 5677 5676 5676 5676 5675 5674 5674 5672 5671 5671 5671 5670 5669 5669 5668 5667 5667 5666 5663 5660 5661 5662 5663 5662 5662 5662 5662
5687 5687 5687 5687 5686 5685 5684 5684 5682 5681 5681 5680 5678 5676 5674 5673 5672 5671 5670 5670 5670 5669 5668 5667 5666 5666 5666 5664 5664 5664 5663 5661 5661 5660 5658 5654 5650 5651 5653 5654 5654 5654 5654
5686 5685 5685 5683 5682 5682 5681 5681 5679 5677 5677 5676 5674 5672 5669 5667 5666 5666 5665 5665 5664 5664 5663 5662 5661 5661 5661 5660 5659 5659 5658 5657 5654 5653 5652 5651 5649 5645 5644 5645 5646 5646 5646
5684 5683 5683 5681 5680 5679 5677 5676 5675 5673 5672 5672 5670 5668 5665 5663 5662 5661 5660 5659 5659 5658 5658 5657 5656 5656 5655 5654 5654 5653 5652 5651 5649 5647 5645 5644 5642 5640 5638 5636 5637 5638 5638
5682 5681 5681 5679 5676 5675 5673 5672 5671 5669 5668 5667 5665 5663 5661 5659 5656 5655 5654 5653 5653 5652 5652 5652 5651 5650 5649 5648 5648 5647 5646 5645 5644 5642 5640 5639 5636 5633 5631 5629 5628 5628 5630
5678 5677 5675 5674 5672 5670 5669 5667 5666 5664 5663 5662 5660 5658 5657 5655 5653 5651 5649 5648 5647 5646 5645 5646 5644 5643 5642 5642 5642 5641 5639 5638 5637 5635 5634 5633 5631 5629 5627 5624 5621 5621 5622
5674 5673 5672 5671 5669 5667 5665 5663 5661 5659 5658 5657 5655 5653 5652 5650 5648 5646 5645 5643 5642 5641 5640 5639 5638 5637 5636 5635 5635 5633 5632 5631 5630 5629 5627 5626 5625 5624 5622 5619 5616 5615 5614
5671 5670 5669 5667 5665 5663 5661 5659 5657 5655 5653 5652 5650 5648 5646 5644 5643 5641 5640 5639 5637 5636 5634 5633 5632 5631 5629 5629 5627 5626 5624 5623 5622 5621 5620 5619 5618 5617 5616 5614 5613 5610 5607
5666 5665 5663 5662 5661 5659 5656 5654 5652 5651 5649 5647 5645 5644 5641 5639 5637 5636 5634 5632 5631 5630 5628 5627 5625 5624 5623 5622 5620 5618 5617 5615 5614 5613 5612 5611 5610 5609 5608 5607 5606 5605 5603
5661 5659 5658 5656 5655 5653 5651 5648 5646 5645 5643 5641 5639 5637 5635 5633 5631 5629 5628 5626 5625 5624 5622 5621 5619 5617 5616 5614 5612 5611 5609 5608 5606 5605 5604 5603 5603 5601 5600 5600 5599 5597 5596
5656 5654 5652 5650 5648 5646 5644 5642 5641 5639 5638 5635 5633 5631 5629 5627 5625 5623 5621 5620 5619 5618 5616 5614 5612 5610 5609 5607 5605 5603 5602 5600 5599 5598 5596 5595 5595 5593 5592 5591 5590 5589 5589
5650 5647 5645 5643 5641 5640 5638 5637 5636 5634 5632 5630 5627 5625 5623 5621 5619 5617 5615 5613 5612 5610 5609 5608 5605 5603 5602 5599 5597 5596 5594 5593 5591 5590 5589 5588 5587 5585 5584 5583 5582 5582 5582
5644 5641 5639 5637 5635 5634 5633 5631 5629 5628 5626 5624 5621 5619 5617 5615 5613 5611 5608 5606 5605 5603 5601 5600 5598 5596 5594 5592 5590 5588 5586 5585 5584 5582 5581 5580 5579 5578 5577 5576 5575 5574 5572
5638 5636 5633 5631 5630 5628 5627 5626 5624 5622 5620 5617 5614 5612 5610 5608 5606 5603 5601 5599 5597 5596 5595 5593 5590 5588 5586 5585 5583 5581 5579 5577 5575 5574 5574 5573 5573 5573 5571 5570 5568 5566 5564
5632 5631 5629 5627 5625 5623 5621 5620 5618 5616 5614 5611 5608 5606 5604 5602 5599 5596 5594 5592 5590 5588 5586 5585 5582 5580 5579 5578 5576 5574 5572 5569 5568 5566 5566 5566 5565 5564 5564 5563 5561 5560 5557
5626 5624 5623 5621 5619 5618 5616 5614 5613 5610 5607 5605 5602 5600 5597 5595 5592 5590 5587 5585 5582 5581 5578 5577 5574 5572 5572 5572 5570 5568 5565 5563 5561 5559 5558 5558 5557 5555 5554 5553 5552 5551 5551
5620 5618 5617 5615 5613 5612 5610 5608 5606 5604 5601 5598 5595 5593 5590 5588 5585 5583 5580 5578 5576 5573 5572 5570 5567 5565 5565 5565 5564 5561 5558 5555 5553 5552 5550 5549 5548 5547 5545 5543 5542 5541 5542
5614 5613 5611 5610 5607 5605 5603 5601 5599 5597 5594 5592 5589 5587 5585 5582 5579 5576 5574 5572 5569 5567 5565 5563 5561 5559 5559 5559 5557 5555 5551 5548 5545 5544 5542 5541 5540 5541 5539 5536 5534 5534 5534
5608 5607 5605 5603 5600 5598 5597 5595 5592 5589 5587 5585 5583 5581 5579 5576 5574 5571 5568 5566 5563 5561 5559 5557 5555 5553 5552 5552 5550 5548 5544 5541 5538 5535 5534 5534 5534 5534 5532 5529 5527 5526 5526
5602 5600 5598 5595 5593 5592 5590 5588 5585 5583 5581 5579 5577 5575 5572 5570 5568 5565 5563 5560 5557 5555 5552 5550 5548 5547 5546 5545 5543 5541 5538 5535 5532 5529 5528 5528 5528 5527 5526 5524 5522 5522 5521
5594 5592 5589 5588 5586 5585 5583 5581 5578 5577 5574 5572 5570 5567 5566 5565 5563 5559 5556 5553 5551 5547 5545 5542 5541 5540 5539 5538 5537 5535 5533 5530 5526 5524 5523 5522 5521 5520 5519 5518 5517 5516 5514
5586 5584 5582 5580 5579 5578 5576 5574 5572 5570 5567 5565 5563 5561 5560 5558 5556 5553 5550 5546 5543 5541 5539 5536 5534 5533 5532 5531 5531 5529 5527 5525 5521 5519 5518 5517 5515 5513 5512 5511 5511 5509 5507
5578 5576 5574 5572 5570 5570 5569 5568 5566 5563 5561 5558 5556 5554 5552 5550 5549 5546 5544 5541 5538 5536 5533 5531 5529 5527 5525 5524 5524 5523 5521 5519 5516 5513 5512 5511 5509 5506 5505 5504 5503 5501 5500
5570 5569 5567 5565 5564 5562 5561 5560 5559 5557 5554 5551 5549 5547 5545 5543 5541 5539 5537 5535 5534 5532 5530 5527 5525 5522 5520 5521 5520 5518 5516 5513 5511 5508 5505 5502 5501 5499 5498 5496 5495 5494 5493
5562 5560 5559 5558 5556 5555 5553 5553 5552 5550 5547 5544 5541 5540 5538 5536 5534 5532 5530 5529 5528 5527 5525 5524 5521 5519 5518 5516 5514 5513 5511 5508 5505 5501 5498 5495 5494 5492 5491 5489 5488 5488 5487